FALCON 9 DEB (45104 NORAD) Tracking and Keplerian Element Data

This shows tracking and keplerian element data for the satellite.

Feedback or suggestion? Click here.




ElementValue
Catalog45104
NameFALCON 9 DEB
Epoch Orbit287
Epoch Day47.53777731
Epoch Year2020
RAAN144.5591
Inclination52.9974
Eccentricity0.0013984
Argument of Perigee28.1587
Mean Anonmoly332.0195
Mean Motion15.99675369
Decay Rate0.00103238
L11 45104U 20006BN 20047.53777731 .00103238 15739-4 20437-3 0 9990
L22 45104 52.9974 144.5591 0013984 28.1587 332.0195 15.99675369 2877

Live tracking and technical data element details for FALCON 9 DEB (NORAD 45104). FALCON 9 DEB can be tracked NOW for your location showing map with azimuth and elevation plus other details from your city location.

Track the satellite on the map from your city or location and see movement details for azimuth, elevation, latitude, longitude, range, height, and movement on the map or in text.







IsCatalogInMostPopularTable: catalog: 45104, numindb: 1
Update: records affected: 1



GetName: 45104 FALCON 9 DEB

Hit Count: updated at: Mon, 17 Feb 2020 23:55:20 GMT